Theta_e
313 316 318 316 315 314 314 313 311 312 312 312 313 312 311 310 308 308 312 312 319 320 320 317 319 320 321 321 323 317 322 322 323 325 326 323 325 322 322 327 330 330 328 329 333
313 312 316 318 316 314 314 313 313 312 312 312 314 314 311 309 308 309 304 308 314 319 319 320 320 321 319 321 323 321 320 320 319 319 321 322 323 323 324 328 332 333 332 331 332
312 313 312 315 318 317 315 313 313 312 312 311 314 314 311 309 311 306 308 305 312 317 316 319 321 321 320 319 322 318 321 318 319 322 322 324 323 321 322 324 326 331 332 331 332
312 312 313 311 315 317 318 315 313 312 311 310 313 313 311 310 301 313 309 308 307 311 315 320 321 322 320 320 319 325 322 319 320 321 323 323 323 323 321 322 318 321 330 331 330
312 312 312 313 311 314 317 318 314 313 312 310 311 312 310 311 311 311 312 307 313 314 314 320 320 320 321 319 319 322 321 320 320 322 321 321 322 323 323 320 320 328 331 330 330
311 311 311 310 312 312 313 315 317 314 312 311 311 312 311 306 306 309 313 313 309 318 315 321 321 319 319 320 317 318 319 320 320 321 320 323 322 322 320 316 319 329 329 328 329
308 310 309 309 309 311 312 312 315 317 313 312 311 312 311 307 309 312 313 313 315 315 319 321 320 319 320 321 319 320 322 319 319 319 320 318 322 323 320 319 320 317 322 327 327
308 309 310 308 309 308 310 313 312 316 315 312 311 313 311 309 308 310 311 311 318 314 318 318 317 318 320 319 319 321 320 322 317 317 318 319 319 317 317 318 319 316 313 313 313
304 308 309 307 308 308 309 311 312 313 316 313 312 312 310 310 310 310 311 314 318 316 316 315 317 319 319 319 319 318 319 320 319 315 316 320 320 316 314 314 315 313 312 311 310
306 306 307 307 307 309 309 309 312 312 316 313 311 312 310 309 310 309 310 311 316 315 316 316 317 318 316 318 320 317 320 315 316 312 313 314 318 317 314 315 314 313 311 310 310
305 306 305 305 305 307 309 310 311 311 314 314 312 310 309 309 309 309 309 310 313 314 316 317 319 320 319 319 314 315 317 315 313 312 312 311 311 312 311 313 313 310 310 309 309
305 306 305 305 305 305 308 309 311 312 315 315 311 309 309 309 310 308 308 311 315 316 315 318 319 316 316 317 316 316 316 315 313 311 314 312 311 310 310 310 311 313 312 312 309
304 304 305 305 305 307 308 308 311 312 314 315 311 310 310 309 309 309 308 310 314 315 316 315 313 315 316 317 320 319 316 316 315 313 312 310 310 310 309 308 308 309 310 309 308
304 304 305 304 304 307 308 308 309 312 314 313 314 312 310 310 310 308 308 311 313 315 315 315 310 315 316 318 317 320 316 315 316 316 316 310 312 309 308 307 306 306 305 306 305
304 303 305 303 304 307 307 309 309 309 314 311 312 310 310 311 309 309 309 310 313 312 314 312 312 313 317 316 316 317 316 316 315 314 313 313 314 310 307 307 308 308 304 302 302
303 304 304 304 304 306 307 308 309 312 314 312 313 313 313 312 311 309 309 309 310 312 312 309 309 311 312 312 315 313 312 312 311 313 315 313 313 310 307 306 304 303 303 304 303
303 303 304 303 303 305 306 308 309 312 308 310 313 313 313 313 312 311 311 311 312 314 313 311 311 309 310 313 312 312 313 308 314 317 313 309 313 309 307 305 303 303 304 303 306
303 302 300 303 303 303 305 306 308 307 305 309 310 312 313 313 313 312 312 312 310 308 308 311 313 311 309 310 312 315 314 311 311 313 310 308 312 309 307 307 305 303 303 305 307
303 303 303 302 302 302 303 306 307 303 305 309 311 313 313 311 313 313 313 312 310 308 308 308 308 307 309 310 310 312 315 309 308 297 306 308 307 304 306 304 303 304 304 304 306
303 303 303 302 302 302 303 305 301 302 304 306 310 311 314 313 313 313 313 311 310 308 306 308 309 307 309 311 310 312 311 312 305 303 307 306 306 305 305 305 304 306 304 304 306
302 302 301 300 301 298 303 301 297 300 303 306 308 309 309 312 312 312 312 311 309 308 307 306 305 305 307 311 312 312 313 311 310 307 307 303 302 300 305 304 303 304 305 305 305
302 302 301 300 300 300 298 293 297 298 301 300 302 308 307 310 313 313 312 310 309 308 308 307 307 309 308 307 310 311 310 313 312 311 308 306 305 301 301 301 302 302 304 305 302
300 298 300 300 301 299 285 289 296 298 299 300 300 303 306 310 311 312 312 309 308 308 309 308 309 311 309 309 308 311 311 310 310 306 310 309 308 302 301 302 300 300 303 303 301
298 301 301 300 297 295 287 289 293 297 298 299 299 302 304 306 308 308 311 308 306 308 310 309 309 310 311 309 309 312 313 312 312 313 310 310 309 305 304 303 303 303 302 301 300
296 301 300 301 301 297 294 291 295 296 297 299 300 300 301 303 306 307 306 308 308 308 309 309 312 309 308 307 308 309 312 312 313 313 312 310 308 307 301 301 300 302 301 301 300
297 301 293 300 300 296 295 292 295 295 297 297 298 301 300 301 302 300 305 308 309 308 310 310 311 310 311 308 305 308 309 311 312 312 312 311 309 308 303 300 301 301 301 301 300
294 295 299 300 300 298 296 294 296 296 297 297 298 298 301 301 300 301 303 303 306 308 309 310 310 311 313 309 308 308 308 309 311 312 312 313 312 310 307 304 304 300 300 301 300
Wind_Speed
23 20 25 22 19 16 15 14 13 13 11 10 9 7 8 10 11 10 7 8 4 3 6 8 3 3 1 2 2 3 4 4 6 7 4 2 2 0 1 4 2 1 3 3 24
25 25 21 25 23 20 16 15 14 13 12 11 10 7 5 7 8 11 12 11 11 5 6 7 4 6 3 2 2 4 4 8 5 4 3 2 3 3 2 3 1 2 3 12 26
23 24 23 20 23 24 21 16 15 13 12 11 10 7 4 5 3 5 3 15 12 8 3 4 3 1 2 1 2 4 6 5 3 0 1 1 1 1 4 3 6 7 5 10 16
24 23 23 23 19 21 24 20 17 14 12 11 11 7 3 1 5 1 1 0 10 11 5 1 1 2 3 4 2 2 4 4 2 2 1 2 1 1 5 3 3 7 12 13 11
26 22 22 20 22 19 20 23 20 16 13 11 10 7 2 2 7 4 1 3 6 10 9 3 3 3 4 3 1 3 3 4 4 1 2 2 5 4 5 2 6 6 9 11 11
26 26 23 22 20 22 19 18 22 19 15 12 10 9 3 4 4 5 4 2 4 9 11 6 4 3 3 2 4 3 1 3 4 3 2 3 3 4 7 6 4 6 7 6 8
29 28 28 26 24 20 22 19 18 21 17 14 12 11 3 10 3 5 5 3 3 12 5 7 2 1 2 2 2 1 2 5 3 3 4 5 6 7 10 3 4 6 7 9 14
32 31 29 33 26 23 21 21 18 20 20 16 13 10 6 14 18 5 7 8 4 9 6 3 2 1 2 0 4 3 2 1 3 5 5 7 9 7 10 5 9 8 8 8 10
35 31 29 28 28 26 24 19 19 17 23 18 12 7 6 3 8 15 7 3 4 6 5 0 2 2 3 5 2 2 4 7 7 5 3 7 4 8 8 8 9 10 9 9 10
33 33 29 27 26 24 22 19 14 14 19 22 10 4 4 5 6 18 11 2 2 5 3 3 1 3 2 4 6 7 5 4 4 2 2 4 8 10 8 3 10 9 9 9 9
34 34 35 34 32 26 20 9 3 3 15 4 11 4 2 5 8 11 13 5 1 3 6 4 6 15 13 14 2 4 3 4 3 5 5 8 8 14 8 6 12 9 12 12 13
35 32 35 33 31 32 27 12 11 1 6 16 17 10 4 11 4 5 17 6 4 6 5 3 18 8 7 4 6 3 4 5 4 2 3 6 9 11 7 7 9 15 16 18 7
34 35 33 30 29 28 34 37 13 12 3 6 7 13 4 9 7 11 16 5 3 5 10 5 0 11 8 5 8 9 6 2 2 5 2 5 7 9 6 5 9 15 18 14 15
33 36 34 33 22 27 29 33 26 11 6 10 8 9 4 5 4 10 21 7 5 12 4 8 3 9 4 13 10 14 8 6 3 2 4 3 7 6 6 9 7 15 9 14 11
37 38 38 34 14 22 23 28 28 8 15 8 12 14 12 11 9 7 23 4 9 8 8 8 9 8 16 12 12 5 7 9 5 2 3 1 3 6 3 7 16 17 11 11 10
38 40 39 34 21 19 21 29 24 12 14 9 11 16 12 15 6 5 13 3 4 5 2 5 1 5 6 4 14 5 5 5 4 3 5 8 6 5 5 8 5 6 8 9 8
38 39 43 36 15 24 31 12 13 19 5 9 12 16 25 20 17 13 17 13 9 9 15 3 10 3 7 6 4 5 7 2 1 3 6 1 7 15 12 12 7 10 8 7 4
40 42 36 30 31 34 15 10 17 24 13 1 10 20 26 19 17 17 20 17 18 7 5 12 7 14 6 7 7 19 12 6 9 6 3 4 8 6 12 13 9 9 7 5 4
41 39 34 26 36 33 9 13 16 5 18 9 11 15 19 21 10 16 19 25 23 17 10 7 7 4 4 6 12 6 13 8 6 2 2 5 7 9 13 13 11 9 5 8 6
39 27 24 36 37 25 12 24 6 2 4 21 15 9 18 25 18 20 20 21 15 24 1 6 2 5 16 2 6 11 13 5 1 5 5 5 5 7 4 12 7 5 8 8 7
28 9 23 42 34 5 13 7 4 3 3 9 24 18 12 10 20 10 10 9 27 22 14 6 5 4 10 13 17 6 10 5 6 5 5 2 6 9 18 13 11 10 8 10 10
10 8 38 45 9 4 6 7 8 6 3 4 1 13 9 13 19 19 20 16 22 19 25 11 5 4 11 4 7 22 21 24 8 8 6 1 8 4 9 9 6 9 9 6 7
12 3 37 36 12 7 1 5 7 6 7 8 7 4 5 5 8 16 12 14 16 21 19 14 6 5 2 3 4 8 16 13 13 2 12 6 12 1 3 5 8 9 10 10 8
7 6 7 9 4 9 7 8 8 4 7 6 6 6 3 7 5 6 13 7 12 26 21 21 14 17 18 18 9 12 17 21 20 13 19 15 26 6 3 5 6 6 6 10 10
4 5 5 16 18 18 15 13 15 7 4 8 1 7 10 3 12 4 2 2 7 20 17 8 12 20 25 17 13 17 22 25 23 28 20 29 22 25 8 8 6 5 7 8 8
4 8 2 13 17 12 19 12 24 10 15 10 11 19 18 15 10 8 6 7 7 6 15 18 7 15 23 21 11 10 19 22 24 28 29 25 20 25 9 8 5 6 6 8 10
4 4 10 17 18 17 23 21 22 16 6 12 22 3 11 18 20 13 1 4 1 4 14 12 9 5 21 23 19 10 18 23 26 25 24 24 33 32 19 15 13 10 12 14 9
Wind_Direction
257 257 244 241 241 240 240 242 242 237 237 245 253 266 289 296 298 294 268 236 245 308 325 332 26 15 357 52 55 119 74 200 208 166 223 198 129 253 3 107 54 69 147 318 161
255 252 253 243 240 241 238 238 240 238 237 244 246 257 292 308 305 268 248 242 239 262 337 10 16 2 31 349 37 100 146 218 202 192 193 308 171 168 122 122 347 320 39 143 158
254 250 245 250 245 239 237 236 237 238 236 235 239 250 284 308 323 249 291 233 232 229 291 316 329 12 109 30 214 162 189 182 191 127 307 199 211 127 156 237 205 204 170 158 165
248 246 247 243 248 243 238 235 234 235 235 232 229 235 259 258 232 354 66 261 220 230 236 288 308 123 148 196 209 180 232 177 166 99 39 284 325 246 179 217 307 247 169 171 176
240 241 243 246 243 248 242 235 233 233 232 227 219 214 196 242 254 185 312 48 177 201 212 197 177 142 178 202 181 196 253 169 167 201 245 327 261 263 241 236 30 93 156 181 188
242 239 238 246 248 242 244 240 231 230 229 223 208 200 201 222 261 225 202 105 167 188 204 182 206 209 178 219 178 214 256 308 207 219 251 204 254 155 279 160 82 136 205 229 221
246 240 243 244 246 242 241 241 236 227 222 217 204 196 227 241 220 194 202 222 207 193 177 200 196 226 144 161 184 2 304 343 230 191 229 155 268 216 239 134 258 230 215 220 227
248 241 237 242 239 244 244 238 236 231 219 211 195 187 248 256 244 252 220 231 213 203 204 168 299 226 171 355 33 124 48 81 296 162 250 139 257 240 245 261 257 244 238 244 244
246 238 235 231 240 243 240 240 237 239 214 198 172 178 248 302 215 205 208 195 170 186 204 245 156 170 74 111 34 337 217 221 313 210 161 185 265 264 225 214 246 253 254 234 252
239 238 232 234 233 234 230 224 240 240 227 171 171 146 261 219 196 209 207 140 113 126 94 158 119 149 118 145 201 203 206 216 205 234 186 238 256 266 288 233 240 258 251 257 238
234 234 236 235 234 230 216 191 151 229 216 235 159 204 119 161 149 189 191 127 76 121 171 190 189 208 191 200 158 141 177 193 235 260 204 242 246 258 254 265 270 263 261 254 255
237 232 233 233 231 228 212 204 207 149 209 230 178 184 120 153 107 191 184 158 167 179 143 150 224 204 175 215 198 157 189 214 268 295 198 286 265 263 240 229 232 249 253 254 254
228 231 226 225 225 218 211 214 214 217 245 182 181 195 177 154 190 188 173 150 161 169 194 192 211 182 175 182 208 226 208 193 236 329 318 321 278 245 246 237 251 254 252 257 248
224 222 225 220 214 214 220 212 205 197 222 204 203 203 155 123 273 176 174 146 185 196 115 254 249 178 165 216 194 237 185 199 274 344 246 4 291 266 267 268 241 255 243 251 243
221 220 216 200 197 198 213 200 196 174 225 193 168 158 152 174 143 210 177 113 173 168 160 216 184 178 208 209 178 230 156 194 183 218 345 105 302 275 298 275 262 260 252 242 230
220 211 204 190 191 203 182 183 181 213 220 175 145 170 153 196 189 107 172 70 141 165 302 211 239 187 192 155 183 159 87 68 67 125 267 199 177 250 209 227 258 276 273 260 270
215 208 197 182 181 173 179 164 211 214 131 178 174 168 184 193 184 170 176 188 166 180 216 200 238 241 159 147 149 171 140 36 267 218 237 175 197 254 278 251 239 274 305 319 229
208 202 209 186 185 175 161 193 229 210 182 179 160 182 187 176 193 183 174 190 213 191 154 198 219 203 193 186 174 199 176 162 192 200 229 147 230 249 245 282 257 247 269 334 307
199 198 193 188 185 176 196 220 209 155 196 152 165 185 200 202 168 179 187 196 197 189 183 169 247 143 177 164 155 189 217 168 104 19 63 215 285 298 263 270 269 259 208 228 219
189 190 189 175 177 170 199 227 166 192 299 192 195 186 196 189 195 195 187 198 202 203 207 195 317 188 193 138 242 185 172 188 124 148 237 253 267 235 285 251 260 244 213 201 175
176 187 171 174 166 173 210 189 170 178 96 181 215 206 214 188 204 187 187 208 205 189 196 153 155 283 151 204 184 152 199 191 164 179 185 241 253 212 219 221 219 215 208 188 178
166 185 163 160 180 193 160 171 155 153 109 128 27 222 201 190 206 203 207 199 198 172 199 193 147 179 207 165 214 207 204 200 190 217 232 114 261 222 224 238 219 210 204 186 175
165 129 163 162 187 172 4 168 167 135 169 162 171 215 209 210 212 202 215 231 191 185 192 180 202 196 358 350 237 206 214 209 213 67 211 189 256 335 245 240 237 216 200 176 164
158 151 164 175 146 166 150 199 185 206 161 147 165 129 211 232 231 180 213 188 193 208 198 172 211 212 223 222 154 196 204 209 208 220 232 220 250 235 237 239 267 247 177 149 171
171 157 187 172 199 188 172 164 181 168 197 150 79 175 181 268 232 221 151 200 251 207 205 199 219 218 231 235 182 206 212 209 210 221 220 234 233 251 217 229 247 180 160 150 177
136 148 158 181 170 167 179 192 185 178 163 202 195 196 190 203 210 196 144 182 209 218 223 212 244 213 235 236 215 221 213 218 219 227 229 243 249 252 206 224 215 196 172 199 203
126 67 156 161 177 182 203 179 194 176 225 194 209 129 199 213 211 226 191 1 166 155 209 211 228 204 222 227 232 239 221 214 219 229 224 231 238 246 234 220 216 194 208 214 209